�N����,����,�~����,�C��,���x,�C��,����,���ϕ���,�ő�u�ԕ���,�ő厞����,���˗�,�I�_���x,�n�����x,�ő啗���N��,DTYPE
"18/05/12","00:10",0.0,12.0,82.3,1012.6,346.1,1.0,2.0,335.0,0.00,9.1,15.9,"00:01:36",1
"18/05/12","00:20",0.0,11.8,82.5,1013.0,294.6,1.2,1.6,304.2,0.00,9.0,15.7,"00:14:42",1
"18/05/12","00:30",0.0,11.3,83.9,1013.0,303.4,1.2,2.0,326.7,0.00,8.7,15.7,"00:20:02",1
"18/05/12","00:40",0.0,11.0,86.2,1013.3,315.2,1.7,2.1,323.2,0.00,8.8,15.7,"00:30:34",1
"18/05/12","00:50",0.0,10.8,86.9,1012.8,307.7,1.2,1.8,314.0,0.00,8.7,15.7,"00:40:08",1
"18/05/12","01:00",0.0,10.7,88.5,1012.6,298.7,1.1,1.8,314.6,0.00,8.9,15.5,"00:57:12",1
"18/05/12","01:10",0.0,10.6,88.5,1013.0,308.1,1.0,1.8,322.1,0.00,8.8,15.4,"01:02:50",1
"18/05/12","01:20",0.0,10.5,89.5,1012.8,317.6,1.8,2.2,325.2,0.00,8.9,15.4,"01:13:08",1
"18/05/12","01:30",0.0,10.4,90.3,1012.6,315.9,1.8,2.4,323.8,0.00,8.9,15.5,"01:24:38",1
"18/05/12","01:40",0.0,10.1,90.6,1012.8,309.7,1.6,2.2,322.0,0.00,8.7,15.4,"01:32:18",1
"18/05/12","01:50",0.0,10.0,91.6,1012.6,300.4,1.6,2.2,309.5,0.00,8.7,15.2,"01:46:42",1
"18/05/12","02:00",0.0,10.2,92.1,1012.1,299.8,1.5,2.1,316.1,0.00,9.0,15.2,"01:56:50",1
"18/05/12","02:10",0.0,10.4,91.3,1012.3,290.3,1.6,2.0,312.8,0.00,9.1,15.2,"02:00:32",1
"18/05/12","02:20",0.0,10.3,90.8,1012.1,299.7,1.6,2.5,308.4,0.00,8.9,15.0,"02:10:56",1
"18/05/12","02:30",0.0,10.3,91.3,1012.3,295.0,1.5,1.9,324.5,0.00,9.0,15.0,"02:27:56",1
"18/05/12","02:40",0.0,10.3,90.8,1012.1,294.8,1.6,2.2,313.0,0.00,8.9,15.2,"02:34:04",1
"18/05/12","02:50",0.0,10.4,90.7,1012.3,279.7,1.5,1.9,275.3,0.00,9.0,14.9,"02:42:10",1
"18/05/12","03:00",0.0,10.4,90.6,1012.1,281.1,1.3,1.8,283.1,0.00,9.0,14.9,"02:55:36",1
"18/05/12","03:10",0.0,10.4,90.2,1012.3,300.1,1.6,2.4,312.1,0.00,8.9,14.8,"03:03:36",1
"18/05/12","03:20",0.0,10.1,90.4,1012.1,313.4,1.6,2.1,319.3,0.00,8.6,14.7,"03:12:18",1
"18/05/12","03:30",0.0,10.0,90.5,1012.6,285.3,1.3,2.0,310.1,0.00,8.6,14.4,"03:22:32",1
"18/05/12","03:40",0.0,9.9,90.2,1012.1,297.0,1.6,2.2,327.1,0.00,8.4,14.7,"03:38:52",1
"18/05/12","03:50",0.0,9.7,91.4,1012.3,318.2,2.0,2.2,319.3,0.00,8.4,14.8,"03:42:24",1
"18/05/12","04:00",0.0,9.6,93.3,1012.1,311.8,1.8,2.2,315.6,0.00,8.6,14.5,"03:52:48",1
"18/05/12","04:10",0.0,9.5,93.5,1012.1,292.0,1.3,1.9,319.3,0.00,8.5,14.6,"04:06:00",1
"18/05/12","04:20",0.0,9.4,93.5,1011.6,298.8,1.6,2.1,318.9,0.00,8.4,14.5,"04:19:28",1
"18/05/12","04:30",0.0,9.4,94.1,1011.9,316.2,1.8,2.2,316.7,0.00,8.5,14.7,"04:22:00",1
"18/05/12","04:40",0.0,9.4,94.6,1011.9,295.4,1.3,1.8,301.6,0.00,8.6,14.2,"04:38:08",1
"18/05/12","04:50",0.0,9.5,93.7,1011.6,297.9,1.5,1.9,301.3,0.00,8.6,14.4,"04:40:56",1
"18/05/12","05:00",0.0,9.2,93.6,1012.1,314.3,1.8,2.2,321.8,0.00,8.3,14.5,"04:54:32",1
"18/05/12","05:10",0.0,9.0,94.2,1012.1,311.4,1.7,2.0,316.9,0.00,8.2,14.3,"05:08:24",1
"18/05/12","05:20",0.0,9.1,95.4,1011.9,319.1,2.1,2.5,315.1,0.00,8.4,14.2,"05:19:20",1
"18/05/12","05:30",0.0,9.2,95.5,1012.1,303.2,1.6,2.0,320.3,0.00,8.6,14.2,"05:22:40",1
"18/05/12","05:40",0.0,9.6,95.9,1012.3,288.9,1.3,1.7,308.8,0.00,9.0,14.2,"05:36:16",1
"18/05/12","05:50",0.0,10.0,95.8,1011.9,291.7,1.5,1.7,308.7,0.01,9.4,14.2,"05:42:56",1
"18/05/12","06:00",0.0,10.4,95.6,1012.3,296.2,1.2,1.4,301.8,0.02,9.8,14.2,"05:53:12",1
"18/05/12","06:10",0.0,10.8,95.4,1012.3,309.0,1.5,2.2,320.9,0.03,10.1,14.1,"06:04:34",1
"18/05/12","06:20",0.0,11.4,95.1,1012.1,317.3,1.8,2.6,325.3,0.04,10.7,14.3,"06:16:40",1
"18/05/12","06:30",0.0,11.7,94.6,1012.3,322.5,1.2,1.7,320.6,0.05,10.9,14.2,"06:24:16",1
"18/05/12","06:40",0.0,12.2,94.2,1012.6,303.4,0.8,1.3,322.1,0.05,11.3,14.2,"06:38:40",1
"18/05/12","06:50",0.0,12.5,93.9,1012.3,326.1,1.0,1.7,335.7,0.06,11.6,14.3,"06:45:20",1
"18/05/12","07:00",0.0,12.9,92.1,1012.3,313.6,1.1,1.4,313.4,0.09,11.7,14.6,"06:53:52",1
"18/05/12","07:10",0.0,13.4,89.4,1012.3,282.0,0.5,0.9,304.2,0.10,11.7,14.4,"07:06:56",1
"18/05/12","07:20",0.0,13.9,86.4,1012.6,297.0,0.8,1.6,317.8,0.10,11.7,14.5,"07:18:08",1
"18/05/12","07:30",0.0,14.3,84.6,1012.8,285.3,0.5,0.9,256.0,0.11,11.8,14.6,"07:27:20",1
"18/05/12","07:40",0.0,15.0,82.3,1013.0,280.5,0.2,0.5,251.9,0.14,12.1,14.9,"07:32:08",1
"18/05/12","07:50",0.0,15.3,80.3,1012.8,250.0,0.2,0.5,322.9,0.17,12.0,15.0,"07:41:44",1
"18/05/12","08:00",0.0,16.0,78.1,1012.8,0.8,0.2,0.6,298.9,0.18,12.2,14.9,"07:54:08",1
"18/05/12","08:10",0.0,16.8,74.0,1013.0,67.3,0.3,0.9,87.6,0.25,12.2,14.9,"08:00:56",1
"18/05/12","08:20",0.0,17.7,72.4,1013.0,86.7,0.3,1.2,143.7,0.28,12.7,15.1,"08:11:20",1
"18/05/12","08:30",0.0,17.4,68.0,1012.6,189.2,0.6,1.3,38.1,0.23,11.5,15.3,"08:28:56",1
"18/05/12","08:40",0.0,18.1,66.3,1012.3,186.1,0.5,1.6,131.5,0.26,11.8,15.4,"08:38:48",1
"18/05/12","08:50",0.0,18.7,63.7,1012.3,167.0,0.6,2.2,227.2,0.37,11.7,15.7,"08:40:02",1
"18/05/12","09:00",0.0,19.1,62.1,1012.1,210.2,1.2,2.9,205.0,0.41,11.7,16.0,"08:56:56",1
"18/05/12","09:10",0.0,19.5,61.6,1011.9,171.0,1.0,3.1,190.3,0.43,12.0,16.3,"09:08:32",1
"18/05/12","09:20",0.0,19.7,60.7,1011.6,146.5,0.8,2.4,124.6,0.42,11.9,16.6,"09:13:12",1
"18/05/12","09:30",0.0,19.6,58.5,1011.4,177.1,1.1,2.1,198.5,0.37,11.3,16.6,"09:28:40",1
"18/05/12","09:40",0.0,20.4,61.9,1010.9,164.3,1.0,2.4,147.7,0.38,12.9,16.7,"09:32:24",1
"18/05/12","09:50",0.0,20.2,61.0,1010.9,179.2,1.5,3.2,198.5,0.38,12.5,17.2,"09:42:16",1
"18/05/12","10:00",0.0,20.2,61.7,1010.7,170.8,1.0,2.5,198.1,0.40,12.7,17.4,"09:50:08",1
"18/05/12","10:10",0.0,21.1,61.7,1010.9,193.5,1.2,3.2,224.0,0.45,13.5,17.6,"10:02:08",1
"18/05/12","10:20",0.0,21.6,58.3,1010.9,132.3,1.1,2.5,188.3,0.52,13.1,17.6,"10:15:28",1
"18/05/12","10:30",0.0,21.7,58.8,1010.2,139.1,1.2,3.2,127.9,0.48,13.3,18.0,"10:25:52",1
"18/05/12","10:40",0.0,22.1,57.7,1010.7,131.6,1.3,2.9,109.4,0.54,13.4,18.3,"10:34:00",1
"18/05/12","10:50",0.0,22.6,59.8,1009.7,167.5,1.6,2.5,186.3,0.52,14.4,18.6,"10:43:04",1
"18/05/12","11:00",0.0,22.9,59.3,1009.5,141.1,1.3,3.1,132.8,0.57,14.6,19.0,"10:56:16",1
"18/05/12","11:10",0.0,22.7,54.9,1009.3,181.0,2.0,4.1,200.5,0.56,13.2,19.1,"11:05:20",1
"18/05/12","11:20",0.0,23.9,56.6,1009.5,124.2,1.1,3.1,114.0,0.60,14.8,19.2,"11:11:04",1
"18/05/12","11:30",0.0,23.5,51.5,1009.5,172.9,0.8,2.6,231.5,0.59,13.0,19.5,"11:29:52",1
"18/05/12","11:40",0.0,24.7,52.5,1009.3,63.1,1.1,3.1,110.7,0.59,14.4,19.7,"11:32:48",1
"18/05/12","11:50",0.0,24.8,50.5,1009.3,142.4,1.1,4.0,196.0,0.60,13.9,20.0,"11:40:24",1
"18/05/12","12:00",0.0,25.4,54.2,1009.7,86.1,1.1,4.7,82.6,0.60,15.5,20.4,"11:57:28",1
"18/05/12","12:10",0.0,25.0,52.3,1009.3,110.7,1.5,3.9,85.7,0.56,14.6,20.3,"12:09:04",1
"18/05/12","12:20",0.0,25.8,52.8,1008.8,138.7,1.7,4.7,152.3,0.61,15.5,20.7,"12:19:36",1
"18/05/12","12:30",0.0,24.5,49.7,1008.3,214.2,2.0,4.2,228.8,0.49,13.4,20.9,"12:27:44",1
"18/05/12","12:40",0.0,25.0,49.9,1008.3,177.3,1.6,3.9,195.6,0.42,13.9,20.9,"12:36:40",1
"18/05/12","12:50",0.0,24.9,50.1,1008.1,204.1,2.1,3.7,221.6,0.51,13.8,21.2,"12:46:32",1
"18/05/12","13:00",0.0,25.9,44.2,1007.8,206.9,1.5,4.3,227.1,0.56,12.8,21.3,"12:58:24",1
"18/05/12","13:10",0.0,25.5,46.1,1008.1,206.2,1.7,4.9,219.0,0.54,13.1,21.3,"13:01:36",1
"18/05/12","13:20",0.0,26.2,46.7,1007.6,196.4,1.3,4.1,204.5,0.59,13.9,21.4,"13:12:32",1
"18/05/12","13:30",0.0,26.3,42.9,1007.6,196.4,2.5,4.5,224.3,0.58,12.7,21.3,"13:29:44",1
"18/05/12","13:40",0.0,26.0,45.6,1007.8,189.3,2.5,4.5,202.7,0.55,13.4,21.4,"13:30:48",1
"18/05/12","13:50",0.0,26.7,41.0,1007.6,220.2,2.1,5.1,187.0,0.54,12.4,21.6,"13:42:00",1
"18/05/12","14:00",0.0,25.9,46.3,1007.6,255.1,1.6,5.0,226.8,0.51,13.5,21.6,"13:51:04",1
"18/05/12","14:10",0.0,25.5,45.7,1007.8,220.2,2.5,6.4,224.3,0.47,13.0,21.6,"14:06:24",1
"18/05/12","14:20",0.0,25.8,43.0,1007.4,206.5,2.2,7.5,229.4,0.43,12.3,21.5,"14:18:48",1
"18/05/12","14:30",0.0,26.2,41.6,1007.1,221.7,2.5,5.0,206.4,0.47,12.2,21.6,"14:21:36",1
"18/05/12","14:40",0.0,25.9,43.6,1007.4,272.1,1.3,3.2,206.9,0.35,12.6,21.7,"14:34:32",1
"18/05/12","14:50",0.0,25.5,38.4,1006.9,206.3,1.5,3.6,205.5,0.25,10.3,21.8,"14:42:56",1
"18/05/12","15:00",0.0,26.2,32.9,1007.1,208.6,2.2,4.3,228.9,0.48,8.7,21.9,"14:55:52",1
"18/05/12","15:10",0.0,25.5,30.6,1006.9,197.5,2.5,5.5,217.2,0.36,7.0,22.1,"15:08:32",1
"18/05/12","15:20",0.0,25.2,28.6,1006.9,258.4,1.8,4.3,246.0,0.12,5.8,21.8,"15:13:20",1
"18/05/12","15:30",0.0,26.7,27.0,1006.4,222.9,1.7,3.5,184.0,0.48,6.2,22.2,"15:29:28",1
"18/05/12","15:40",0.0,26.1,33.3,1006.2,184.9,2.0,4.0,192.4,0.41,8.8,22.0,"15:36:08",1
"18/05/12","15:50",0.0,27.1,30.0,1006.4,198.9,1.1,2.9,227.1,0.36,8.1,22.0,"15:45:12",1
"18/05/12","16:00",0.0,26.8,30.3,1006.2,213.4,2.5,3.9,204.5,0.35,8.0,21.8,"15:52:08",1
"18/05/12","16:10",0.0,27.1,26.1,1006.4,248.5,1.3,3.7,235.2,0.31,6.1,22.0,"16:00:02",1
"18/05/12","16:20",0.0,26.3,24.9,1006.2,221.8,2.5,4.4,209.3,0.26,4.7,21.8,"16:14:16",1
"18/05/12","16:30",0.0,25.7,32.4,1006.4,204.3,2.2,3.6,209.6,0.16,8.0,21.8,"16:22:16",1
"18/05/12","16:40",0.0,26.3,33.6,1006.7,192.0,2.2,4.4,192.3,0.27,9.1,21.8,"16:36:32",1
"18/05/12","16:50",0.0,26.3,34.6,1006.4,211.4,1.7,4.1,228.8,0.21,9.5,21.7,"16:43:20",1
"18/05/12","17:00",0.0,25.9,34.8,1006.2,207.4,1.3,3.4,227.4,0.15,9.2,21.5,"16:54:56",1
"18/05/12","17:10",0.0,25.2,36.5,1006.7,201.9,1.8,5.8,190.4,0.12,9.3,21.7,"17:08:32",1
"18/05/12","17:20",0.0,24.3,40.1,1006.9,178.0,3.1,5.5,175.5,0.09,9.9,21.5,"17:11:20",1
"18/05/12","17:30",0.0,23.6,43.5,1006.9,185.1,2.3,4.7,204.8,0.04,10.5,21.5,"17:20:32",1
"18/05/12","17:40",0.0,23.4,45.2,1007.4,176.8,2.6,4.0,170.0,0.05,10.9,21.2,"17:30:40",1
"18/05/12","17:50",0.0,23.3,46.3,1006.9,176.1,2.6,4.1,199.3,0.05,11.2,21.2,"17:48:56",1
"18/05/12","18:00",0.0,22.9,48.7,1007.1,179.8,1.6,3.3,225.5,0.03,11.6,21.2,"17:53:52",1
"18/05/12","18:10",0.0,22.1,50.5,1007.1,163.1,1.7,3.1,181.9,0.02,11.4,20.9,"18:06:40",1
"18/05/12","18:20",0.0,22.0,50.7,1007.4,170.4,1.8,3.4,167.0,0.01,11.4,20.9,"18:12:00",1
"18/05/12","18:30",0.0,21.8,51.7,1007.4,197.7,1.1,1.9,221.2,0.01,11.5,20.9,"18:24:00",1
"18/05/12","18:40",0.0,21.4,56.1,1007.6,346.0,0.8,1.4,137.8,0.00,12.3,20.7,"18:33:20",1
"18/05/12","18:50",0.0,20.3,60.5,1007.6,322.0,2.1,3.1,341.8,0.00,12.5,20.3,"18:47:20",1
"18/05/12","19:00",0.0,19.7,62.6,1008.1,329.8,1.7,2.4,333.8,0.00,12.4,20.5,"18:57:12",1
"18/05/12","19:10",0.0,19.4,63.8,1008.1,336.0,1.7,3.3,335.6,0.00,12.4,20.2,"19:02:48",1
"18/05/12","19:20",0.0,19.0,64.5,1008.1,323.6,1.3,2.6,340.9,0.00,12.2,19.9,"19:11:12",1
"18/05/12","19:30",0.0,18.6,65.7,1007.8,315.3,1.1,1.7,333.0,0.00,12.1,20.0,"19:25:04",1
"18/05/12","19:40",0.0,18.4,67.3,1008.6,306.2,1.2,1.6,325.1,0.00,12.3,19.9,"19:31:52",1
"18/05/12","19:50",0.0,18.1,68.0,1008.8,300.4,1.1,2.0,324.8,0.00,12.1,19.7,"19:46:00",1
"18/05/12","20:00",0.0,18.0,69.1,1008.8,308.2,1.1,2.4,345.8,0.00,12.3,19.5,"19:57:28",1
"18/05/12","20:10",0.0,18.0,69.2,1008.8,296.0,1.2,2.6,330.7,0.00,12.3,19.3,"20:09:04",1
"18/05/12","20:20",0.0,18.0,69.2,1008.8,298.1,1.2,2.7,327.7,0.00,12.3,19.2,"20:10:02",1
"18/05/12","20:30",0.0,18.0,69.0,1009.0,326.8,1.6,3.4,333.3,0.00,12.3,19.1,"20:28:40",1
"18/05/12","20:40",0.0,18.3,67.2,1009.5,328.8,1.8,3.6,336.4,0.00,12.2,19.2,"20:38:24",1
"18/05/12","20:50",0.0,18.7,64.4,1009.0,324.9,2.1,3.4,338.3,0.00,11.9,19.0,"20:46:00",1
"18/05/12","21:00",0.0,18.5,63.9,1009.5,317.1,1.7,2.9,335.8,0.00,11.6,18.9,"20:50:56",1
"18/05/12","21:10",0.0,18.3,64.7,1009.5,327.8,1.7,2.6,332.6,0.00,11.6,18.7,"21:00:40",1
"18/05/12","21:20",0.0,18.1,65.4,1009.7,316.7,1.5,2.4,330.0,0.00,11.6,18.7,"21:19:28",1
"18/05/12","21:30",0.0,18.1,65.6,1009.5,315.2,1.5,2.7,336.5,0.00,11.6,18.8,"21:26:48",1
"18/05/12","21:40",0.0,18.3,65.2,1009.7,330.8,2.0,3.7,336.6,0.00,11.7,18.6,"21:34:16",1
"18/05/12","21:50",0.0,18.5,64.8,1009.5,324.1,1.8,3.4,332.3,0.00,11.8,18.4,"21:40:32",1
"18/05/12","22:00",0.0,18.5,64.7,1009.7,323.2,1.6,2.9,337.0,0.00,11.8,18.3,"21:59:20",1
"18/05/12","22:10",0.0,18.6,65.2,1009.5,324.0,1.8,4.5,338.1,0.00,12.0,18.4,"22:05:12",1
"18/05/12","22:20",0.0,18.5,65.6,1009.3,319.9,1.7,4.1,329.2,0.00,12.0,18.5,"22:11:44",1
"18/05/12","22:30",0.0,18.5,66.2,1009.5,311.1,1.5,3.4,306.6,0.00,12.1,18.2,"22:26:08",1
"18/05/12","22:40",0.0,18.3,67.0,1009.7,314.2,1.2,2.4,342.8,0.00,12.1,18.4,"22:36:48",1
"18/05/12","22:50",0.0,18.3,67.2,1009.3,294.7,0.8,1.6,319.6,0.00,12.2,18.2,"22:43:28",1
"18/05/12","23:00",0.0,18.3,67.2,1009.5,312.0,1.1,2.6,345.4,0.00,12.2,18.0,"22:52:00",1
"18/05/12","23:10",0.0,18.1,68.3,1009.5,327.2,1.1,1.8,334.3,0.00,12.2,18.1,"23:02:56",1
"18/05/12","23:20",0.0,17.9,68.6,1009.5,327.2,0.6,1.2,299.8,0.00,12.1,18.1,"23:10:32",1
"18/05/12","23:30",0.0,17.9,69.0,1009.5,341.9,0.8,1.8,355.2,0.00,12.2,18.2,"23:27:12",1
"18/05/12","23:40",0.0,17.2,70.8,1009.3,302.1,0.6,1.4,332.4,0.00,11.9,17.9,"23:38:00",1
"18/05/12","23:50",0.0,16.9,71.7,1009.0,324.3,1.3,2.2,340.0,0.00,11.8,18.0,"23:42:48",1
"18/05/12","24:00",0.0,16.7,71.7,1008.8,322.5,1.5,2.9,324.8,0.00,11.6,17.7,"23:52:40",1
